Simultaneous Nadir Overpasses (SNOs) Predictions

Prediction of SNOs between AQUA and METOP-A Satellite Orbit:

Table of predicted SNOs for the next 14.0 days since TLE Epoch: 10/18/2014
Index Date (AQUA) Time (AQUA) Lat,Lon (AQUA) SZA (AQUA ) Date (METOP-A) Time (METOP-A) Lat,Lon (METOP-A) SZA (METOP-A ) Distance(km) Time Diff (sec)
1 10/18/2014 12:00:54 -73.80, 174.06 96.60 10/18/2014 12:00:32 -73.79, 174.13 96.60 2.00 22
2 10/18/2014 12:50:23 73.87, -18.45 83.49 10/18/2014 12:51:11 73.86, -18.40 83.48 2.00 48
3 10/21/2014 06:45:31 73.12, 74.28 83.72 10/21/2014 06:44:25 73.11, 71.65 83.73 85.00 66
4 10/21/2014 07:35:09 -73.78,-119.46 95.61 10/21/2014 07:34:53 -73.78,-119.50 95.61 1.13 16
5 10/21/2014 08:24:38 73.85, 48.02 84.48 10/21/2014 08:25:32 73.83, 47.97 84.46 2.67 54
6 10/24/2014 02:19:51 73.39, 140.17 84.98 10/24/2014 02:18:41 73.33, 138.57 84.94 51.63 70
7 10/24/2014 03:09:24 -73.78, -53.02 94.62 10/24/2014 03:09:13 -73.81, -53.01 94.59 2.96 11
8 10/24/2014 03:58:53 73.86, 114.45 85.48 10/24/2014 03:59:52 73.86, 114.44 85.48 0.17 59
9 10/26/2014 21:54:09 73.57,-153.76 86.13 10/26/2014 21:52:58 73.50,-154.63 86.07 28.33 71
10 10/26/2014 22:43:38 -73.80, 13.38 93.63 10/26/2014 22:43:33 -73.78, 13.36 93.64 1.72 5
11 10/26/2014 23:33:07 73.88,-179.16 86.47 10/26/2014 23:34:11 73.88,-179.09 86.46 2.11 64
12 10/29/2014 17:28:25 73.71, -87.62 87.21 10/29/2014 17:27:13 73.72, -87.71 87.23 2.84 72
13 10/29/2014 18:17:52 -73.78, 79.87 92.71 10/29/2014 18:17:53 -73.81, 79.83 92.68 3.32 1




NCC Satellite Simultaneous Nadir Overpasses (SNOs) Prediction Service
